Flag for Mexico Weather past 2 weeks in Tijuana, Baja California, Mexico

Now
63 °F

Overcast.


Feels Like: 63 °F
Forecast: 63 / 74 °F
Wind: No wind

Location: Brown Field Municipal Airport

Current Time: Oct 20, 2014 at 6:21:31 AM

Latest Report: Oct 20, 2014 at 5:53 AM


Visibility: 10 mi

Pressure: 29.90 "Hg

Humidity: 87%

Dew point: 59 °F

Location of TijuanaLocation

Historic Weather in Tijuana — Graph

°F

Tijuana temperature yesterday

Maximum temperature yesterday: 75 °F (at 11:53 AM)
Minimum temperature yesterday: 62 °F (at 12:53 AM)
Average temperature yesterday: 67 °F

Past Weeks' High & Low Weather Summary

 TemperatureHumidityPressure
High91 °F (Oct 5, 10:53 AM)97% (Oct 14, 1:53 AM)30.02 "Hg (Oct 14, 1:53 AM)
Low57 °F (Oct 13, 5:53 AM)9% (Oct 6, 10:53 AM)29.80 "Hg (Oct 8, 4:53 AM)
Average69 °F66%29.91 "Hg
* Reported Oct 5 4:53 AM — Oct 20 4:53 AM, Tijuana, Weather by CustomWeather, © 2014

Note: Actual official high and low records may vary slightly from our data, if they occured in-between our weather recording intervals... More about our weather records

Advertising

Tijuana weather history for previous 24 hours

 ConditionsComfort  
Time TempWeatherWind HumidityBarometerVisibility
4:53 AM
Oct 20
62 °FOvercast.3 mph90%29.88 "Hg10 mi
4:03 AM61 °FPassing clouds.3 mph93%29.89 "Hg9 mi
3:53 AM61 °FPassing clouds.3 mph90%29.88 "Hg10 mi
2:53 AM60 °FClear.No wind93%29.87 "Hg9 mi
1:53 AM60 °FClear.No wind93%29.88 "Hg9 mi
12:53 AM61 °FClear.No wind93%29.88 "Hg10 mi
11:53 PM
Oct 19
64 °FClear.No wind90%29.88 "Hg10 mi
10:53 PM65 °FClear.No wind87%29.89 "Hg10 mi
9:53 PM64 °FClear.No wind87%29.88 "Hg10 mi
7:53 PM66 °FClear.6 mph81%29.87 "Hg10 mi
6:53 PM67 °FOvercast.5 mph79%29.85 "Hg10 mi
5:53 PM69 °FOvercast.7 mph73%29.85 "Hg10 mi
4:53 PM70 °FOvercast.8 mph71%29.84 "Hg10 mi
3:53 PM71 °FOvercast.13 mph68%29.84 "Hg10 mi
2:53 PM72 °FPassing clouds.13 mph68%29.85 "Hg10 mi
1:53 PM74 °FSunny.8 mph62%29.85 "Hg10 mi
12:53 PM75 °FSunny.13 mph58%29.86 "Hg10 mi
11:53 AM75 °FSunny.6 mph54%29.88 "Hg10 mi
10:53 AM73 °FScattered clouds.5 mph57%29.91 "Hg10 mi
9:53 AM69 °FScattered clouds.5 mph66%29.92 "Hg10 mi
8:53 AM67 °FOvercast.5 mph71%29.92 "Hg10 mi
7:53 AM66 °FOvercast.3 mph70%29.90 "Hg10 mi
6:53 AM64 °FOvercast.3 mph75%29.88 "Hg10 mi
Weather by CustomWeather, © 2014

See weather overviewHow to use our weather pages